Flag for Congo Weather past 2 weeks in Pointe-Noire, Congo

Now
75 °F

Mild.


Feels Like: 75 °F
Forecast: 74 / 80 °F
Wind: 7 mph from Southwest

Location: Pointe Airport-Noire

Current Time: Sep 23, 2014 at 12:26:42 AM

Latest Report: Sep 22, 2014 at 11:00 PM


Visibility: 5 mi

Pressure: 29.95 "Hg

Humidity: 83%

Dew point: 70 °F

Location of Pointe-NoireLocation

Historic Weather in Pointe-Noire — Graph

°F

Pointe-Noire temperature yesterday

Maximum temperature yesterday: 79 °F (at 1:00 PM)
Minimum temperature yesterday: 75 °F (at 12:00 AM)
Average temperature yesterday: 76 °F

Past Weeks' High & Low Weather Summary

 TemperatureHumidityPressure
High82 °F (Sep 20, 1:00 PM)100% (Sep 10, 8:00 AM)30.07 "Hg (Sep 10, 8:00 AM)
Low70 °F (Sep 9, 3:00 AM)61% (Sep 9, 2:00 PM)29.83 "Hg (Sep 22, 4:00 PM)
Average75 °F84%29.93 "Hg
* Reported Sep 7 11:00 PM — Sep 22 11:00 PM, Pointe-Noire, Weather by CustomWeather, © 2014

Note: Actual official high and low records may vary slightly from our data, if they occured in-between our weather recording intervals... More about our weather records

Advertising

Pointe-Noire weather history for previous 24 hours

 ConditionsComfort  
Time TempWeatherWind HumidityBarometerVisibility
11:00 PM
Sep 22
75 °FMild.7 mph83%29.95 "Hg5 mi
10:00 PM75 °FMostly cloudy.8 mph83%29.92 "Hg5 mi
9:00 PM75 °FOvercast.8 mph83%29.89 "Hg5 mi
8:00 PM77 °FMostly cloudy.8 mph83%29.89 "Hg5 mi
7:00 PM77 °FMostly cloudy.7 mph83%29.86 "Hg5 mi
6:00 PM77 °FBroken clouds.8 mph79%29.86 "HgN/A
5:00 PM77 °FBroken clouds.9 mph79%29.83 "HgN/A
4:00 PM77 °FBroken clouds.10 mph79%29.83 "HgN/A
3:00 PM77 °FOvercast.9 mph79%29.86 "HgN/A
2:00 PM77 °FOvercast.12 mph79%29.86 "HgN/A
1:00 PM79 °FMore clouds than sun.13 mph74%29.89 "HgN/A
12:00 PM77 °FMore clouds than sun.15 mph74%29.92 "HgN/A
11:00 AM77 °FMore clouds than sun.13 mph74%29.95 "Hg5 mi
10:00 AM75 °FMore clouds than sun.6 mph89%29.95 "Hg4 mi
9:00 AM75 °FDrizzle. Mostly cloudy.5 mph89%29.98 "Hg2 mi
8:00 AM75 °FDrizzle. Mostly cloudy.12 mph83%29.92 "Hg2 mi
7:00 AM75 °FMostly cloudy.9 mph83%29.92 "Hg4 mi
6:00 AM75 °FMostly cloudy.12 mph89%29.92 "Hg5 mi
5:00 AM75 °FPassing clouds.9 mph89%29.92 "Hg5 mi
4:00 AM75 °FPassing clouds.10 mph89%29.92 "Hg5 mi
3:00 AM75 °FPartly cloudy.8 mph89%29.89 "Hg5 mi
2:00 AM75 °FPartly cloudy.10 mph89%29.92 "Hg5 mi
1:00 AM75 °FPartly cloudy.8 mph89%29.92 "Hg5 mi
12:00 AM75 °FPartly cloudy.6 mph89%29.95 "Hg5 mi
Weather by CustomWeather, © 2014

See weather overviewHow to use our weather pages